Location: Montclus
(44.2604°N, 4.4195°E)
Time: 22:35:00
(UTC+00:00)

Daily predictions for brighter satellites

Satellite Brightness Start Highest point End
(mag) Time Altitude Azimuth Time Altitude Azimuth Time Altitude Azimuth
IGS 5A 3.5 19:37:28 10° SSE 19:41:37 86° ENE 19:45:47 10° NNW
Cosmos 1602 4.3 19:39:15 10° NNW 19:43:02 61° W 19:46:47 10° S
CZ-4B R/B 2.0 19:40:49 10° NNE 19:43:48 34° E 19:46:45 10° SSE
Cosmos 1725 Rocket 4.0 19:38:32 10° S 19:44:48 72° E 19:51:06 10° NNE
ISS -2.5 19:43:18 10° W 19:46:32 44° NNW 19:49:46 10° NE
Cosmos 1151 Rocket 3.9 19:43:27 10° SSE 19:47:10 30° E 19:50:55 10° NNE
USA 186 3.4 19:45:01 10° SSW 19:47:15 25° W 19:49:23 10° NW
PSLV R/B 4.1 19:43:49 10° NNE 19:47:47 52° E 19:51:43 10° S
CZ-4 R/B 4.2 19:51:55 10° WSW 19:54:04 14° W 19:56:15 10° WNW
Tsikada Rocket 4.1 19:50:06 10° N 19:56:27 69° E 20:02:40 10° SSE
BREEZE-M DEB (TANK) 3.5 19:54:41 10° WNW 19:58:11 49° SSW 20:02:23 11° SE
JB-3 4.4 19:54:31 10° NNE 19:58:40 84° ESE 20:02:49 10° S
Sich 1 3.0 19:54:41 10° N 19:59:06 72° E 20:03:26 10° SSE
Cosmos 1814 Rocket 4.4 19:54:14 10° N 19:59:11 47° ENE 20:03:49 12° SE
Cosmos 1400 Rocket 3.0 19:56:42 10° NNW 20:00:34 71° W 20:04:24 10° S
SPOT 1/Viking Rocket 3.7 19:58:21 10° SSE 20:03:24 59° ENE 20:08:29 10° N
COBE Rocket 4.4 19:58:26 10° S 20:03:34 68° W 20:08:37 10° NNW
Cosmos 1850 Rocket 4.3 19:58:59 10° SSW 20:04:17 74° WNW 20:09:40 10° NNE
ATLAS 5 CENTAUR R/B 4.0 20:00:14 10° WNW 20:05:07 29° WSW 20:10:42 10° S
Terra 3.7 20:04:05 10° E 20:06:56 16° ENE 20:09:47 10° NNE
USA 215 4.3 20:03:23 10° ENE 20:08:13 21° ESE 20:13:02 10° S
SL-4 R/B 3.9 20:05:18 10° WNW 20:09:27 32° N 20:13:22 10° ENE
Meteor 1-14 Rocket 4.4 20:03:37 10° N 20:09:36 76° ENE 20:15:26 10° SSE
X-37B 2.0 20:07:23 10° W 20:09:39 22° SSW 20:11:20 13° SSE
CARTOSAT-1 4.2 20:09:32 14° SE 20:12:57 39° ENE 20:16:58 10° N
Cosmos 1743 4.5 20:16:36 10° NNE 20:19:14 18° ENE 20:20:54 14° ESE
Cosmos 841 Rocket 3.8 20:14:20 10° NNW 20:19:25 64° WSW 20:24:30 10° S
Cosmos 2098 Rocket 4.0 20:17:17 10° NNW 20:20:43 35° W 20:23:38 10° SSW
Cosmos 2227 Rocket 3.1 20:16:16 10° N 20:21:27 35° NE 20:25:37 15° ESE
COSMOS 2487 3.2 20:21:50 10° NNW 20:24:50 42° WSW 20:27:33 12° S
NOSS 3-4 (A) 3.9 20:22:53 10° S 20:27:51 32° ESE 20:33:05 10° NE
NOSS 3-4 (C) 3.9 20:22:58 10° S 20:27:56 32° ESE 20:33:10 10° NE
BREEZE-M DEB (TANK) 4.3 20:24:24 10° SW 20:29:46 72° SE 20:47:25 10° ENE
Meteor 1-27 Rocket 4.4 20:26:16 15° SSE 20:30:25 37° E 20:35:43 10° NNE
Cosmos 1315 Rocket 2.8 20:29:32 10° N 20:33:40 74° E 20:36:28 19° SSE
H-2A R/B 3.6 20:30:04 10° N 20:33:50 36° WNW 20:37:35 10° SW
Cosmos 1980 Rocket 3.7 20:34:41 15° ESE 20:35:35 16° E 20:38:51 10° ENE
NOSS 3-2 (A) 4.2 20:29:21 10° NW 20:36:59 75° WSW 20:44:02 17° SSE
Meteor 1-11 Rocket 4.1 20:31:38 10° N 20:37:31 56° ENE 20:41:39 20° SSE
Cosmos 1328 Rocket 3.4 20:38:10 12° S 20:42:04 76° E 20:46:24 10° NNE
Genesis I 3.2 20:38:11 10° SW 20:42:11 90° ENE 20:46:17 10° NE
Cosmos 1656 3.6 20:37:16 10° SSW 20:42:51 77° ESE 20:48:23 10° NNE
Cosmos 44 2.9 20:40:50 10° NW 20:45:12 88° WSW 20:47:38 26° SSE
Resurs 01 Rocket 2.7 20:41:55 10° S 20:46:05 42° W 20:50:18 10° NNW
CZ-2C R/B 4.4 20:42:34 10° NNE 20:47:00 38° E 20:49:15 24° SSE
Cosmos 1340 3.5 20:46:45 27° ESE 20:47:41 31° E 20:51:02 10° NNE
Cosmos 389 Rocket 3.7 20:45:01 10° NNE 20:48:01 27° ENE 20:48:53 24° E
Cosmos 1544 4.1 20:44:47 10° NNW 20:48:09 41° W 20:51:01 13° SSW
NOSS 3-2 (C) 4.1 20:43:31 10° NW 20:51:09 85° NE 20:57:18 22° SE
SPOT 3 Rocket 3.6 20:51:46 19° S 20:55:29 80° WSW 21:00:40 10° NNW
Cosmos 968 Rocket 3.4 20:50:48 10° SSW 20:55:59 88° WNW 21:01:10 10° NNE
Cosmos 1697 Rocket 2.9 20:53:01 17° S 20:57:11 48° ESE 21:02:37 10° NE
ERS-1 Rocket 3.2 20:54:28 25° SE 20:57:13 57° ENE 21:02:10 10° N
Cosmos 1933 Rocket 4.1 20:53:51 10° N 20:58:10 45° ENE 20:59:56 30° SE
Cosmos 2297 Rocket 2.2 20:54:02 10° NNW 20:59:44 86° WSW 21:03:06 25° SSE
EXPRESS MD2 4.0 20:54:39 10° WNW 21:00:06 52° NNE 21:02:01 22° E
Cosmos 1666 Rocket 4.3 20:56:02 10° NNW 21:00:15 49° W 21:03:38 15° SSW
Cosmos 405 2.8 20:57:02 10° N 21:00:27 85° ENE 21:01:37 39° SSE
Cosmos 1464 Rocket 4.0 20:59:05 19° S 21:03:40 67° E 21:09:49 10° NNE
Ariane Rocket 4.1 21:01:44 11° SSW 21:06:12 39° W 21:10:58 10° NNW
Helios 1A Rocket 2.9 21:04:52 30° S 21:06:48 78° WSW 21:10:49 10° NNW
SPOT 5 3.1 21:05:58 27° SSE 21:09:01 83° ENE 21:14:19 10° NNW
Aureole 1 Rocket 2.8 21:09:47 42° ESE 21:09:47 42° ESE 21:12:43 10° NE
USA 238 DEB 4.0 21:04:18 10° NW 21:11:39 77° WSW 21:16:20 26° SSE
USA 238 4.0 21:04:25 10° NW 21:11:46 77° SW 21:16:26 26° SSE
Cosmos 2228 Rocket 4.2 21:12:15 27° ESE 21:12:57 28° E 21:16:51 10° NNE
Cosmos 1633 Rocket 4.1 21:10:49 10° NNW 21:14:57 41° W 21:17:54 17° SSW
Cosmos 1536 2.8 21:15:14 10° N 21:19:15 79° W 21:20:40 39° S
Cosmos 1470 Rocket 3.8 21:14:58 10° NNW 21:19:16 64° W 21:21:18 29° SSW
CENTAUR R/B 3.8 21:14:32 10° NW 21:22:34 50° WSW 21:28:29 21° S
ISS -1.3 21:21:09 10° WNW 21:23:53 22° N 21:26:37 10° NE
Gbstr 26 Del rocket 4.2 21:17:18 10° WNW 21:24:14 56° SW 21:26:50 33° SSE
SAR-Lupe-4 4.3 21:20:56 10° NNE 21:24:01 36° E 21:24:01 36° E
Cosmos 2219 3.1 21:21:56 10° NNW 21:27:37 85° WSW 21:30:03 36° SSE
SJ 16-02 2.4 21:28:50 28° E 21:28:50 28° E 21:32:18 10° NE
Okean 1 3.5 21:28:21 49° ESE 21:28:47 52° E 21:32:42 10° NNE
ARIANE 5 R/B 2.6 21:27:55 44° SSE 21:29:18 74° ENE 21:33:47 10° N
Cosmos 1184 Rocket 2.5 21:31:08 81° NNW 21:31:08 81° NNW 21:34:04 10° N
Nadezhda 4 Rocket 3.9 21:25:11 10° N 21:31:28 82° E 21:34:27 33° SSE
Cosmos 1515 Rocket 4.1 21:31:24 23° SSW 21:33:55 56° W 21:38:14 10° N
Cosmos 1486 Rocket 4.0 21:30:39 20° SSW 21:34:22 86° WNW 21:39:42 10° NNE
Meteor 1-19 Rocket 4.2 21:32:48 37° SSE 21:34:50 61° E 21:40:11 10° NNE
Cosmos 2082 3.8 21:33:49 10° NNW 21:39:26 64° ENE 21:41:30 38° SE
Cosmos 1809 Rocket 4.4 21:34:15 10° N 21:40:24 89° W 21:43:11 35° S
Spot 2 Rocket 4.1 21:37:57 27° SSW 21:40:24 48° W 21:45:18 10° NNW
Terra 2.0 21:42:29 39° S 21:44:09 67° WSW 21:48:54 10° NNW
SAR-Lupe-1 3.9 21:41:18 10° NNE 21:44:55 81° ESE 21:44:59 80° ESE
Cosmos 1975 3.6 21:42:45 10° N 21:46:32 36° ENE 21:46:43 36° E
Cosmos 1869 Rocket 3.6 21:42:21 10° N 21:46:51 71° E 21:47:39 56° SE
Cosmos 1378 4.0 21:47:28 36° ENE 21:47:28 36° ENE 21:50:19 10° NNE
Cosmos 2344 3.4 21:41:12 10° SSW 21:48:47 82° SE 21:56:24 10° NE
SL-4 R/B 2.6 21:45:14 10° NW 21:49:39 57° NNE 21:50:56 39° E
USA 215 3.1 21:45:17 10° NE 21:51:52 79° SE 21:58:27 10° SW
Cosmos 773 Rocket 4.3 21:47:09 10° NNW 21:52:19 55° ENE 21:53:43 42° ESE
Cosmos 1743 4.0 21:51:36 10° NNW 21:55:00 32° W 21:55:54 28° WSW
Cosmos 2026 Rocket 4.0 21:51:30 10° N 21:57:35 65° E 21:59:36 42° SE
Cosmos 2263 Rocket 2.7 21:55:01 10° NNW 22:00:26 48° ENE 22:02:13 35° ESE
Meteor 2-4 Rocket 3.9 22:00:26 45° SE 22:01:50 57° E 22:07:27 10° NNE
Cosmos 2034 Rocket 4.3 21:58:07 25° SSW 22:01:51 65° W 22:08:10 10° N
Cosmos 1503 Rocket 4.0 22:00:02 37° SSW 22:02:12 83° WNW 22:07:32 10° NNE
Cosmos 1627 Rocket 4.4 21:57:47 10° N 22:03:59 74° E 22:06:00 45° SSE
Cosmos 2227 Rocket 3.1 22:00:19 10° NW 22:05:31 38° WSW 22:07:27 29° SW
Meteor 1-18 Rocket 4.2 22:07:39 47° S 22:09:24 81° E 22:15:06 10° NNE
Cosmos 2369 3.8 22:08:39 30° SW 22:11:33 76° WNW 22:17:14 10° NNE
Cosmos 1707 Rocket 3.6 22:12:52 63° E 22:12:55 63° E 22:17:19 10° NNE
ATLAS 2AS CENTAUR R/B 3.0 22:10:25 35° S 22:13:47 62° ESE 22:21:15 10° NE
Cosmos 921 Rocket 3.3 22:11:54 10° NNW 22:16:22 60° WSW 22:16:48 57° SW
NOSS 3-4 (A) 4.2 22:12:54 10° WSW 22:18:26 48° NW 22:24:26 10° NNE
NOSS 3-4 (C) 4.2 22:12:57 10° WSW 22:18:31 48° NW 22:24:32 10° NNE
Cosmos 1980 Rocket 2.2 22:16:22 35° SW 22:18:51 77° WNW 22:24:32 10° NNE
Cosmos 2322 Rocket 3.6 22:23:28 22° E 22:23:28 22° E 22:27:10 10° NE
USA 267 3.4 22:23:13 29° ESE 22:26:46 71° NE 22:33:18 10° NW
Meteor 2-15 Rocket 4.4 22:32:01 54° SSE 22:33:17 68° E 22:39:20 10° NNE
ALOS 2 3.5 22:33:40 37° ENE 22:33:51 37° ENE 22:37:54 10° N
ADEOS Rocket 4.0 22:33:38 26° E 22:35:23 31° ENE 22:40:21 10° N
Cosmos 2227 4.5 22:31:18 10° NNW 22:37:01 62° ENE 22:38:22 48° ESE
Cosmos 2279 Rocket 3.9 22:36:53 54° SSE 22:38:19 77° E 22:44:33 10° N
Cosmos 1697 Rocket 4.4 22:36:27 10° WSW 22:41:22 29° NW 22:46:17 10° N
RESURS DK-1 2.6 22:42:48 65° NNE 22:42:48 65° NNE 22:46:23 10° NNE
Cosmos 2297 Rocket 4.5 22:40:45 10° WNW 22:42:50 12° W 22:44:54 10° WSW
Cosmos 1844 Rocket 4.4 22:38:19 10° N 22:42:55 25° NE 22:45:40 17° E
ERS-2 3.6 22:44:09 10° NNE 22:46:16 29° NE 22:46:16 29° NE
Cosmos 1733 Rocket 3.1 22:44:09 10° NNW 22:48:28 74° WNW 22:48:28 74° WNW
Cosmos 2180 Rocket 4.4 22:48:21 57° SSE 22:49:30 71° E 22:55:37 10° NNE
Cosmos 158 Rocket 3.8 22:44:57 10° NNW 22:50:03 83° WSW 22:50:26 76° S
Iridium 2 4.3 22:48:12 10° N 22:51:10 53° NNW 22:51:10 53° NNW
Cosmos 1908 Rocket 4.3 22:48:57 10° N 22:52:50 42° ENE 22:52:50 42° ENE
Cosmos 1346 Rocket 3.3 22:53:37 54° NW 22:53:37 54° NW 22:57:17 10° N
Cosmos 44 Rocket 3.6 22:48:43 10° NNW 22:53:21 55° NE 22:53:49 52° ENE
Cosmos 1862 Rocket 3.6 22:54:35 75° WNW 22:54:35 75° WNW 22:58:58 10° N
SL-16 R/B 2.2 22:56:41 59° ESE 22:56:55 59° ESE 23:02:30 10° NNE
Cosmos 2219 Rocket 4.4 22:57:30 10° E 22:57:30 10° E 22:58:09 10° E
ATLAS 3B R/B 3.3 22:50:22 10° NNW 22:57:37 58° NE 23:01:38 29° ESE
ISS -1.9 22:58:17 10° NW 23:00:58 31° N 23:00:58 31° N
SJ 16-02 3.0 23:05:45 24° W 23:07:02 28° WNW 23:10:49 10° N
Cosmos 1898 Rocket 4.4 23:08:21 36° E 23:08:21 36° E 23:12:55 10° NE
Cosmos 1733 4.0 23:05:14 10° N 23:08:06 49° N 23:08:06 49° N
Cosmos 1655 Rocket 4.0 23:02:49 10° N 23:09:05 69° E 23:10:20 55° SE
Cosmos 1726 3.5 23:08:30 10° N 23:11:02 33° NE 23:11:02 33° NE
Okean 3 4.4 23:13:02 39° ENE 23:13:02 39° ENE 23:16:15 10° NNE
Cosmos 2278 4.5 23:10:56 31° WSW 23:13:15 47° WNW 23:18:44 10° NNE
Cosmos 990 Rocket 4.0 23:17:28 66° ESE 23:17:28 66° ESE 23:22:40 10° NNE
Spot 4 4.3 23:17:33 50° W 23:17:33 50° W 23:22:12 10° NNW
Meteor 1-4 Rocket 4.0 23:14:33 10° NNW 23:16:39 34° NNW 23:16:39 34° NNW
H-2A R/B 4.2 23:22:02 10° N 23:25:42 47° WNW 23:25:42 47° WNW
SL-4 R/B 4.3 23:25:10 10° WNW 23:26:23 17° W 23:26:23 17° W
Cosmos 1842 4.5 23:30:50 36° NE 23:30:50 36° NE 23:33:33 10° NNE
Cosmos 2360 Rocket 2.4 23:31:53 52° ESE 23:31:56 52° ESE 23:37:25 10° NE
Meteor 1-23 Rocket 4.2 23:33:53 67° SSE 23:34:32 75° E 23:40:22 10° NNE
USA 215 4.3 23:28:29 10° NE 23:34:35 43° NNW 23:40:41 10° W
PSLV R/B 4.2 23:30:33 10° NNE 23:34:07 47° ENE 23:34:07 47° ENE
Cosmos 2263 Rocket 3.4 23:39:28 10° NW 23:43:54 26° W 23:43:54 26° W
Cosmos 2333 Rocket 2.8 23:51:19 42° ESE 23:51:28 42° ESE 23:56:46 10° NE
